Regional Weather Roundup
Issued by NWS

Home | Current Version | Previous Version | Graphics & Text | Print | Product List | Glossary On
Versions: 1 2 3 4 5 6 7 8 9 10 11 12 13 14 15 16 17 18 19 20 21 22 23 24 25 26 27 28 29 30 31 32 33 34 35 36 37 38 39 40 41 42 43 44 45 46 47 48 49 50
000
ASUS43 KBIS 291502
RWRND

NORTH DAKOTA REGIONAL WEATHER ROUNDUP
NATIONAL WEATHER SERVICE BISMARCK ND
1000 AM CDT FRI MAY 29 2015

NOTE: "FAIR" INDICATES FEW OR NO CLOUDS BELOW 12,000 FEET WITH NO
SIGNIFICANT WEATHER AND/OR OBSTRUCTIONS TO VISIBILITY.


NDZ001>003-009>011-017-291600-
NORTHWEST NORTH DAKOTA

CITY           SKY/WX    TMP DP  RH WIND       PRES   REMARKS
WILLISTON      CLOUDY    47  32  56 N10       30.32R
MINOT          CLOUDY    45  34  65 NW17G23   30.25R
MINOT AFB      CLOUDY    45  40  83 N16G22    30.25R
$$

NDZ018>021-031>035-040>046-291600-
SOUTHWEST NORTH DAKOTA

CITY           SKY/WX    TMP DP  RH WIND       PRES   REMARKS
BISMARCK       CLOUDY    50  38  63 N20G28    30.21R
DICKINSON      CLOUDY    45  33  63 N16       30.24R
GARRISON         N/A     47  35  63 N12G22    30.25R
HETTINGER ARPT CLOUDY    45  39  79 N14       30.24R
$$

NDZ004>008-012>016-024-026-027-054-291600-
NORTHEAST NORTH DAKOTA

CITY           SKY/WX    TMP DP  RH WIND       PRES   REMARKS
GRAND FORKS    CLOUDY    45  39  79 N29G35    30.13R
GRND FRKS AFB  CLOUDY    45  36  71 N29G36    30.14R
DEVILS LAKE    CLOUDY    45  32  61 N25G32    30.19R
$$

NDZ022-023-025-028>030-036>039-047>053-291600-
SOUTHEAST NORTH DAKOTA

CITY           SKY/WX    TMP DP  RH WIND       PRES   REMARKS
FARGO          CLOUDY    48  42  80 N28G38    30.08R
JAMESTOWN      CLOUDY    49  40  71 N25G35    30.13R
$$



USA.gov is the U.S. government's official web portal to all federal, state and local government web resources and services.